Time,TemperatureF,DewpointF,PressureIn,WindDirection,WindDirectionDegrees,WindSpeedMPH,WindSpeedGustMPH,Humidity,HourlyPrecipIn,Conditions,Clouds,dailyrainin,SoftwareType,DateUTC
2013-04-15 00:00:00,33.3,32.8,29.59,ENE,68,2.8,6.7,98,0.00,,SKC,0.00,VWS V14.01,2013-04-15 05:00:00,
2013-04-15 00:19:00,33.3,32.8,29.59,ENE,68,0.0,6.3,98,0.00,,SKC,0.00,VWS V14.01,2013-04-15 05:19:00,
2013-04-15 00:39:00,33.3,32.8,29.56,ENE,68,1.0,5.9,98,0.00,,SKC,0.00,VWS V14.01,2013-04-15 05:39:00,
2013-04-15 01:00:00,33.4,32.9,29.56,ENE,68,0.0,5.5,98,0.00,,SKC,0.00,VWS V14.01,2013-04-15 06:00:00,
2013-04-15 01:19:00,33.3,32.8,29.56,ENE,68,1.5,6.7,98,0.00,,SKC,0.00,VWS V14.01,2013-04-15 06:19:00,
2013-04-15 01:39:00,33.4,32.9,29.56,ENE,68,0.0,6.3,98,0.00,,SKC,0.00,VWS V14.01,2013-04-15 06:39:00,
2013-04-15 02:00:00,33.4,32.9,29.56,ENE,68,0.0,8.6,98,0.00,,SKC,0.00,VWS V14.01,2013-04-15 07:00:00,
2013-04-15 03:00:00,33.6,33.1,29.56,East,90,2.3,7.8,98,0.00,,SKC,0.00,VWS V14.01,2013-04-15 08:00:00,
2013-04-15 03:19:00,33.8,33.3,29.53,South,180,1.5,8.2,98,0.00,,SKC,0.00,VWS V14.01,2013-04-15 08:19:00,
2013-04-15 03:40:00,34.0,33.5,29.56,SSE,158,4.9,11.4,98,0.00,,SKC,0.00,VWS V14.01,2013-04-15 08:40:00,
2013-04-15 04:00:00,34.0,33.5,29.56,SSE,158,0.0,9.4,98,0.04,,SKC,0.04,VWS V14.01,2013-04-15 09:00:00,
2013-04-15 04:19:00,33.8,33.3,29.56,ENE,68,3.1,9.4,98,0.04,,SKC,0.04,VWS V14.01,2013-04-15 09:19:00,
2013-04-15 04:39:00,33.8,33.3,29.56,ESE,112,0.0,5.9,98,0.04,,SKC,0.04,VWS V14.01,2013-04-15 09:39:00,
2013-04-15 05:00:00,34.0,33.5,29.56,South,180,3.6,11.4,98,0.04,,SKC,0.04,VWS V14.01,2013-04-15 10:00:00,
2013-04-15 05:19:00,33.8,33.3,29.53,WNW,292,1.8,9.4,98,0.00,,SKC,0.04,VWS V14.01,2013-04-15 10:19:00,
2013-04-15 05:39:00,33.4,32.9,29.53,ESE,112,0.0,7.4,98,0.00,,SKC,0.04,VWS V14.01,2013-04-15 10:39:00,
2013-04-15 05:59:00,32.9,32.4,29.53,SSE,158,1.8,5.5,98,0.00,,SKC,0.04,VWS V14.01,2013-04-15 10:59:00,
2013-04-15 06:19:00,32.7,32.2,29.53,East,90,0.0,5.1,98,0.00,,SKC,0.04,VWS V14.01,2013-04-15 11:19:00,
2013-04-15 06:39:00,32.7,32.2,29.53,South,180,0.0,0.0,98,0.00,,SKC,0.04,VWS V14.01,2013-04-15 11:39:00,
2013-04-15 07:59:00,34.5,33.2,29.56,SSW,202,4.1,17.6,95,0.00,,SKC,0.04,VWS V14.01,2013-04-15 12:59:00,
2013-04-15 08:19:00,35.6,33.5,29.56,SSW,202,7.5,18.4,92,0.00,,SKC,0.04,VWS V14.01,2013-04-15 13:19:00,
2013-04-15 08:39:00,36.9,32.8,29.56,SW,225,4.9,18.4,85,0.00,,SKC,0.04,VWS V14.01,2013-04-15 13:39:00,
2013-04-15 08:59:00,36.3,32.0,29.56,WSW,248,4.9,15.3,84,0.00,,SKC,0.04,VWS V14.01,2013-04-15 13:59:00,
2013-04-15 09:19:00,36.1,30.9,29.53,SW,225,2.3,13.3,81,0.00,,SKC,0.04,VWS V14.01,2013-04-15 14:19:00,
2013-04-15 09:39:00,36.7,29.5,29.56,SSW,202,3.1,23.5,75,0.04,,SKC,0.08,VWS V14.01,2013-04-15 14:39:00,
2013-04-15 09:59:00,35.2,25.8,29.56,SSE,158,11.1,24.7,68,0.04,,SKC,0.08,VWS V14.01,2013-04-15 14:59:00,
2013-04-15 10:19:00,34.9,24.7,29.56,SW,225,3.3,21.9,66,0.04,,SKC,0.08,VWS V14.01,2013-04-15 15:19:00,
2013-04-15 10:39:00,36.0,26.4,29.59,SSW,202,2.3,22.3,68,0.04,,SKC,0.08,VWS V14.01,2013-04-15 15:39:00,
2013-04-15 10:59:00,34.5,25.4,29.59,SSE,158,13.6,33.3,69,0.00,,SKC,0.08,VWS V14.01,2013-04-15 15:59:00,
2013-04-15 11:19:00,36.9,26.6,29.59,SSW,202,12.4,30.2,66,0.00,,SKC,0.08,VWS V14.01,2013-04-15 16:19:00,
2013-04-15 11:39:00,37.2,26.5,29.59,SSW,202,9.0,19.6,65,0.00,,SKC,0.08,VWS V14.01,2013-04-15 16:39:00,
2013-04-15 12:00:00,36.9,25.5,29.62,WSW,248,10.0,23.1,63,0.00,,SKC,0.08,VWS V14.01,2013-04-15 17:00:00,
2013-04-15 12:39:00,36.5,27.0,29.65,SSW,202,3.6,25.5,68,0.04,,SKC,0.12,VWS V14.01,2013-04-15 17:39:00,
2013-04-15 13:00:00,35.8,25.9,29.62,WSW,248,2.3,30.5,67,0.04,,SKC,0.12,VWS V14.01,2013-04-15 18:00:00,
2013-04-15 13:39:00,35.6,26.1,29.65,WSW,248,3.6,18.8,68,0.04,,SKC,0.12,VWS V14.01,2013-04-15 18:39:00,
2013-04-15 13:59:00,35.6,26.8,29.65,WNW,292,6.2,22.7,70,0.00,,SKC,0.12,VWS V14.01,2013-04-15 18:59:00,
2013-04-15 14:19:00,36.0,27.5,29.68,WSW,248,6.9,22.7,71,0.00,,SKC,0.12,VWS V14.01,2013-04-15 19:19:00,
2013-04-15 14:39:00,36.0,27.1,29.68,SSW,202,3.3,23.1,70,0.00,,SKC,0.12,VWS V14.01,2013-04-15 19:39:00,
2013-04-15 14:59:00,36.7,28.5,29.68,SSW,202,3.6,17.6,72,0.00,,SKC,0.12,VWS V14.01,2013-04-15 19:59:00,
2013-04-15 15:19:00,39.2,27.3,29.68,SSE,158,8.5,18.8,62,0.00,,SKC,0.12,VWS V14.01,2013-04-15 20:19:00,
2013-04-15 15:39:00,38.5,27.0,29.68,SSW,202,15.2,23.1,63,0.05,,SKC,0.17,VWS V14.01,2013-04-15 20:39:00,
2013-04-15 15:59:00,37.8,26.7,29.68,SSW,202,3.1,23.1,64,0.05,,SKC,0.17,VWS V14.01,2013-04-15 20:59:00,
2013-04-15 16:19:00,37.4,26.7,29.71,WSW,248,6.4,18.0,65,0.05,,SKC,0.17,VWS V14.01,2013-04-15 21:19:00,
2013-04-15 16:39:00,37.4,26.7,29.68,SSW,202,6.2,15.3,65,0.05,,SKC,0.17,VWS V14.01,2013-04-15 21:39:00,
2013-04-15 16:59:00,37.2,26.9,29.71,SW,225,8.7,14.9,66,0.00,,SKC,0.17,VWS V14.01,2013-04-15 21:59:00,
2013-04-15 17:19:00,37.0,27.1,29.71,SSW,202,4.1,24.3,67,0.04,,SKC,0.21,VWS V14.01,2013-04-15 22:19:00,
2013-04-15 17:39:00,36.7,26.8,29.74,WNW,292,4.9,24.7,67,0.04,,SKC,0.21,VWS V14.01,2013-04-15 22:39:00,
2013-04-15 17:59:00,36.5,26.6,29.71,East,90,4.9,17.2,67,0.04,,SKC,0.21,VWS V14.01,2013-04-15 22:59:00,
2013-04-15 18:19:00,36.3,26.8,29.74,SW,225,3.6,25.1,68,0.04,,SKC,0.21,VWS V14.01,2013-04-15 23:19:00,
2013-04-15 18:39:00,36.1,27.0,29.74,WNW,292,2.6,14.9,69,0.00,,SKC,0.21,VWS V14.01,2013-04-15 23:39:00,
2013-04-15 18:59:00,36.0,27.1,29.74,WSW,248,3.6,12.5,70,0.00,,SKC,0.21,VWS V14.01,2013-04-15 23:59:00,
2013-04-15 19:19:00,35.8,27.0,29.74,SSE,158,3.3,12.5,70,0.00,,SKC,0.21,VWS V14.01,2013-04-16 00:19:00,
2013-04-15 19:39:00,35.6,27.1,29.76,SW,225,2.8,12.1,71,0.00,,SKC,0.21,VWS V14.01,2013-04-16 00:39:00,
2013-04-15 19:59:00,35.4,27.3,29.76,WSW,248,3.6,13.7,72,0.00,,SKC,0.21,VWS V14.01,2013-04-16 00:59:00,
2013-04-15 20:20:00,35.2,27.5,29.76,WSW,248,2.8,11.4,73,0.00,,SKC,0.21,VWS V14.01,2013-04-16 01:20:00,
2013-04-15 20:40:00,35.1,27.6,29.76,WSW,248,4.1,13.3,74,0.00,,SKC,0.21,VWS V14.01,2013-04-16 01:40:00,
2013-04-15 21:00:00,34.9,27.5,29.79,SSW,202,6.4,9.8,74,0.00,,SKC,0.21,VWS V14.01,2013-04-16 02:00:00,
2013-04-15 21:19:00,34.9,27.5,29.79,SSW,202,2.8,12.9,74,0.00,,SKC,0.21,VWS V14.01,2013-04-16 02:19:00,
2013-04-15 21:40:00,34.7,27.6,29.79,West,270,3.3,16.8,75,0.00,,SKC,0.21,VWS V14.01,2013-04-16 02:40:00,
2013-04-15 21:59:00,34.5,27.4,29.79,SW,225,3.6,12.5,75,0.00,,SKC,0.21,VWS V14.01,2013-04-16 02:59:00,
2013-04-15 22:20:00,34.3,27.6,29.79,SSW,202,6.7,13.3,76,0.00,,SKC,0.21,VWS V14.01,2013-04-16 03:20:00,
2013-04-15 22:39:00,34.3,27.6,29.82,WSW,248,2.3,10.2,76,0.00,,SKC,0.21,VWS V14.01,2013-04-16 03:39:00,
2013-04-15 22:59:00,34.3,27.9,29.82,SSW,202,1.5,11.4,77,0.00,,SKC,0.21,VWS V14.01,2013-04-16 03:59:00,
2013-04-15 23:19:00,34.3,27.9,29.82,SSW,202,1.5,14.9,77,0.00,,SKC,0.21,VWS V14.01,2013-04-16 04:19:00,
2013-04-15 23:39:00,34.2,28.0,29.82,WSW,248,5.4,12.9,78,0.00,,SKC,0.21,VWS V14.01,2013-04-16 04:39:00,
2013-04-15 23:59:00,34.2,28.0,29.82,SSW,202,2.8,13.7,78,0.00,,SKC,0.00,VWS V14.01,2013-04-16 04:59:00,